SCP
0 0 0 0 0 0 0 0 0 0 0 0 0 0 0 0 0 0 0 -0 0 0
0 0 0 0 0 0 0 0 0 0 0 0 0 0 0 0 0 0 0 0 -0 0
0 0 0 0 0 0 0 0 0 0 0 0 0 0 0 0 0 0 0 -0 0 0
0 0 0 0 0 0 0 0 0 0 0 0 0 0 0 0 0 0 0 -0 -0 0
0 0 0 0 0 0 0 0 0 0 0 0 0 0 0 0 0 0 0 -0 0 -0
0 0 0 0 0 0 0 0 0 0 0 0 0 0 0 0 0 0 0 0 -0 0
0 0 0 0 0 0 0 0 0 0 0 0 0 0 0 0 0 0 0 0 0 0
0 0 0 0 0 0 0 0 0 0 0 0 0 0 0 0 0 0 -0 -0 0 0
0 0 0 0 0 0 0 0 0 0 0 -0 0 0 0 0 0 0 0 -0 0 0
0 -0 -0 0 0 0 0 0 0 0 -0 -0 -0 0 0 0 0 0 0 0 0 -0
-0 -0 -0 -0 -0 0 0 0 0 0 -0 -0 -0 0 0 -0 0 0 0 0 0 0
-0 -0 -0 -0 -0 -0 -0 0 0 0 0 -0 -0 -0 0 0 0 0 0 0 -0 0
-0 -0 -0 0 -0 0 0 -0 0 0 0 0 -0 -0 0 0 0 0 0 -0 0 -0
-0 0 0 0 -0 -0 -0 0 0 0 0 0 -0 -0 0 -0 0 0 0 0 0 0
Wind_Speed_500mb
32 35 34 32 30 32 34 27 22 24 26 25 28 26 22 21 19 19 15 14 17 19
40 38 36 35 34 32 27 24 23 23 24 25 21 20 20 22 22 21 16 15 18 18
40 37 37 35 30 27 23 21 20 19 20 18 17 16 19 19 21 19 17 19 22 21
42 36 33 30 28 24 20 18 18 19 17 15 13 13 13 17 21 22 19 17 17 16
37 35 31 27 24 22 22 23 23 19 14 9 9 14 15 17 18 21 26 24 18 15
33 29 27 25 25 28 27 26 22 15 7 2 5 4 3 8 15 26 34 28 31 18
33 30 29 26 28 30 29 25 17 11 2 3 4 5 7 13 13 20 37 38 31 26
31 27 25 26 31 31 29 21 13 5 5 6 7 7 6 4 1 5 7 25 24 24
28 25 26 25 37 33 23 17 14 6 6 8 8 10 9 5 4 12 17 19 21 22
25 26 33 37 35 27 22 18 13 5 6 10 10 11 12 6 16 15 14 14 16 24
22 26 35 33 31 27 23 18 11 4 6 10 12 12 12 14 14 12 11 13 14 19
21 30 32 34 30 27 22 19 11 6 5 8 12 13 13 14 11 17 13 17 22 25
22 25 29 34 28 26 23 19 11 6 4 7 11 12 13 15 15 21 32 32 30 29
21 21 25 34 27 22 21 18 13 8 6 8 11 13 15 15 16 24 37 39 37 37
Wind_Direction_500mb
152 155 154 154 153 156 161 167 183 203 217 233 249 245 228 233 231 233 249 247 250 234
148 150 150 148 147 154 164 178 197 209 229 238 221 218 229 232 233 242 254 247 248 240
147 149 148 150 156 166 174 192 207 216 203 198 203 214 231 236 238 239 241 239 240 238
143 145 149 154 163 173 187 192 176 174 182 190 205 223 243 251 239 224 220 226 227 230
149 149 154 161 170 174 174 157 152 154 161 182 232 256 264 250 234 224 217 211 218 229
147 151 153 155 160 162 153 147 145 151 166 239 285 300 292 264 253 235 228 223 219 224
141 145 147 147 156 154 148 145 141 149 122 17 356 330 296 296 274 254 238 218 221 218
138 142 149 153 156 151 148 146 148 110 64 30 19 12 12 347 21 203 213 179 193 199
143 145 152 162 159 151 150 145 157 88 66 48 45 57 61 52 118 142 135 161 178 188
164 160 155 149 150 150 152 155 141 90 80 57 67 66 78 87 122 121 137 151 173 186
174 166 167 162 162 159 160 153 166 114 97 65 76 78 82 92 122 125 130 145 154 156
166 163 167 166 164 165 166 167 175 135 104 84 83 93 86 91 109 120 119 119 130 138
161 166 169 171 168 170 165 178 176 157 122 115 97 110 89 91 115 118 113 111 108 118
144 155 170 177 175 174 180 187 191 183 153 126 117 124 95 89 121 129 125 108 102 111
Wind_Speed_850mb
32 35 34 32 30 32 34 27 22 24 26 25 28 26 22 21 19 19 15 14 17 19
40 38 36 35 34 32 27 24 23 23 24 25 21 20 20 22 22 21 16 15 18 18
40 37 37 35 30 27 23 21 20 19 20 18 17 16 19 19 21 19 17 19 22 21
42 36 33 30 28 24 20 18 18 19 17 15 13 13 13 17 21 22 19 17 17 16
37 35 31 27 24 22 22 23 23 19 14 9 9 14 15 17 18 21 26 24 18 15
33 29 27 25 25 28 27 26 22 15 7 2 5 4 3 8 15 26 34 28 31 18
33 30 29 26 28 30 29 25 17 11 2 3 4 5 7 13 13 20 37 38 31 26
31 27 25 26 31 31 29 21 13 5 5 6 7 7 6 4 1 5 7 25 24 24
28 25 26 25 37 33 23 17 14 6 6 8 8 10 9 5 4 12 17 19 21 22
25 26 33 37 35 27 22 18 13 5 6 10 10 11 12 6 16 15 14 14 16 24
22 26 35 33 31 27 23 18 11 4 6 10 12 12 12 14 14 12 11 13 14 19
21 30 32 34 30 27 22 19 11 6 5 8 12 13 13 14 11 17 13 17 22 25
22 25 29 34 28 26 23 19 11 6 4 7 11 12 13 15 15 21 32 32 30 29
21 21 25 34 27 22 21 18 13 8 6 8 11 13 15 15 16 24 37 39 37 37
Wind_Direction_850mb
152 155 154 154 153 156 161 167 183 203 217 233 249 245 228 233 231 233 249 247 250 234
148 150 150 148 147 154 164 178 197 209 229 238 221 218 229 232 233 242 254 247 248 240
147 149 148 150 156 166 174 192 207 216 203 198 203 214 231 236 238 239 241 239 240 238
143 145 149 154 163 173 187 192 176 174 182 190 205 223 243 251 239 224 220 226 227 230
149 149 154 161 170 174 174 157 152 154 161 182 232 256 264 250 234 224 217 211 218 229
147 151 153 155 160 162 153 147 145 151 166 239 285 300 292 264 253 235 228 223 219 224
141 145 147 147 156 154 148 145 141 149 122 17 356 330 296 296 274 254 238 218 221 218
138 142 149 153 156 151 148 146 148 110 64 30 19 12 12 347 21 203 213 179 193 199
143 145 152 162 159 151 150 145 157 88 66 48 45 57 61 52 118 142 135 161 178 188
164 160 155 149 150 150 152 155 141 90 80 57 67 66 78 87 122 121 137 151 173 186
174 166 167 162 162 159 160 153 166 114 97 65 76 78 82 92 122 125 130 145 154 156
166 163 167 166 164 165 166 167 175 135 104 84 83 93 86 91 109 120 119 119 130 138
161 166 169 171 168 170 165 178 176 157 122 115 97 110 89 91 115 118 113 111 108 118
144 155 170 177 175 174 180 187 191 183 153 126 117 124 95 89 121 129 125 108 102 111